SZN6AW GMMW-GOBD

Flight info

Callsign SZN6AW
Flight time N/A
Altitude 31000
Route ARI UM372 FES UG850 ADM UR975 ULNOT
Aircraft A321/M-SDE3FGHIRWY/LB1

Departure

Time 2026-05-07 21:00
Airport Nador Al Aaroui International Airport (GMMW)

Arrival

Time N/A
Airport Blaise Diagne International Airport (GOBD)
Time Latitude Longitude Altitude Speed Heading
2026-05-07 20:36 34.99250 -3.02847 592 ft 0 kts 348°
2026-05-07 20:45 34.99241 -3.02845 592 ft 3 kts 348°
2026-05-07 20:46 34.99222 -3.02840 592 ft 3 kts 348°
2026-05-07 20:46 34.99204 -3.02835 592 ft 3 kts 323°
2026-05-07 20:46 34.99193 -3.02816 592 ft 3 kts 261°
2026-05-07 20:46 34.99202 -3.02797 591 ft 3 kts 203°
2026-05-07 20:47 34.99220 -3.02791 591 ft 3 kts 179°
2026-05-07 20:47 34.99236 -3.02792 591 ft 0 kts 172°
2026-05-07 20:50 34.99244 -3.02794 591 ft 0 kts 170°
2026-05-07 20:50 34.99251 -3.02795 591 ft 2 kts 170°
2026-05-07 20:51 34.99247 -3.02794 591 ft 4 kts 170°
2026-05-07 20:52 34.99200 -3.02800 591 ft 8 kts 217°
2026-05-07 20:52 34.99172 -3.02894 592 ft 16 kts 258°
2026-05-07 20:52 34.99100 -3.02940 592 ft 14 kts 173°
2026-05-07 20:52 34.98982 -3.02910 592 ft 20 kts 169°
2026-05-07 20:53 34.98894 -3.02996 592 ft 17 kts 256°
2026-05-07 20:53 34.98867 -3.03142 595 ft 22 kts 258°
2026-05-07 20:53 34.98820 -3.03407 597 ft 42 kts 258°
2026-05-07 20:53 34.98749 -3.03814 600 ft 44 kts 258°
2026-05-07 20:54 34.98689 -3.04165 601 ft 35 kts 258°
2026-05-07 20:54 34.98686 -3.04339 602 ft 10 kts 285°
2026-05-07 20:54 34.98655 -3.04366 603 ft 6 kts 131°
2026-05-07 20:54 34.98663 -3.04318 602 ft 0 kts 78°
2026-05-07 20:55 34.98666 -3.04296 602 ft 5 kts 78°
2026-05-07 20:55 34.98674 -3.04245 601 ft 0 kts 78°
2026-05-07 20:55 34.98677 -3.04229 601 ft 4 kts 78°
2026-05-07 20:55 34.98687 -3.04172 601 ft 9 kts 78°
2026-05-07 20:56 34.98712 -3.04030 601 ft 39 kts 77°
2026-05-07 20:56 34.98817 -3.03427 598 ft 104 kts 78°
2026-05-07 20:56 34.98943 -3.02689 589 ft 51 kts 78°
2026-05-07 20:56 34.99000 -3.02363 587 ft 20 kts 82°
2026-05-07 20:57 34.99007 -3.02274 587 ft 2 kts 356°
2026-05-07 20:57 34.99007 -3.02364 587 ft 29 kts 254°
2026-05-07 20:57 34.98934 -3.02754 590 ft 63 kts 258°
2026-05-07 20:57 34.98825 -3.03386 598 ft 89 kts 258°
2026-05-07 20:58 34.98712 -3.04030 601 ft 39 kts 258°
2026-05-07 20:58 34.98683 -3.04202 601 ft 20 kts 260°
2026-05-07 20:58 34.98687 -3.04341 602 ft 8 kts 284°
2026-05-07 20:58 34.98662 -3.04370 603 ft 5 kts 159°
2026-05-07 20:59 34.98659 -3.04335 602 ft 0 kts 80°
2026-05-07 20:59 34.98662 -3.04315 602 ft 10 kts 80°
2026-05-07 20:59 34.98730 -3.03931 600 ft 81 kts 78°
2026-05-07 20:59 34.98888 -3.03016 593 ft 137 kts 78°
2026-05-07 21:00 34.99114 -3.01720 799 ft 162 kts 78°
2026-05-07 21:00 34.99361 -3.00406 1443 ft 159 kts 75°
2026-05-07 21:00 34.99681 -2.99114 2065 ft 158 kts 73°
2026-05-07 21:00 34.99578 -2.97808 2675 ft 161 kts 121°
2026-05-07 21:01 34.98667 -2.97079 3104 ft 168 kts 176°
2026-05-07 21:01 34.97506 -2.97440 3312 ft 179 kts 205°
2026-05-07 21:01 34.96345 -2.98064 3584 ft 189 kts 204°
2026-05-07 21:01 34.95138 -2.98846 3725 ft 206 kts 218°
2026-05-07 21:02 34.94159 -3.00193 3880 ft 220 kts 237°
2026-05-07 21:02 34.93279 -3.01806 4018 ft 237 kts 237°
2026-05-07 21:02 34.92344 -3.03513 4295 ft 250 kts 236°
2026-05-07 21:02 34.91347 -3.05335 4625 ft 263 kts 236°
2026-05-07 21:03 34.90334 -3.07186 5309 ft 262 kts 237°
2026-05-07 21:03 34.89325 -3.09030 6022 ft 261 kts 236°
2026-05-07 21:03 34.88318 -3.10867 6671 ft 261 kts 236°
2026-05-07 21:03 34.87316 -3.12698 7321 ft 259 kts 236°
2026-05-07 21:04 34.86332 -3.14496 7971 ft 257 kts 236°
2026-05-07 21:04 34.85329 -3.16327 8647 ft 256 kts 235°
2026-05-07 21:04 34.84356 -3.18095 9312 ft 254 kts 235°
2026-05-07 21:04 34.83376 -3.19878 9946 ft 253 kts 235°
2026-05-07 21:05 34.82399 -3.21658 10503 ft 253 kts 235°
2026-05-07 21:05 34.81423 -3.23434 11036 ft 253 kts 236°
2026-05-07 21:05 34.80444 -3.25217 11572 ft 254 kts 236°
2026-05-07 21:05 34.79463 -3.27002 12111 ft 254 kts 236°
2026-05-07 21:06 34.78477 -3.28791 12646 ft 255 kts 236°
2026-05-07 21:06 34.77489 -3.30583 13179 ft 256 kts 236°
2026-05-07 21:06 34.76498 -3.32380 13703 ft 256 kts 237°
2026-05-07 21:06 34.75502 -3.34186 14164 ft 257 kts 236°
2026-05-07 21:07 34.74499 -3.36002 14619 ft 260 kts 237°
2026-05-07 21:07 34.73482 -3.37841 15045 ft 263 kts 237°
2026-05-07 21:07 34.72456 -3.39695 15460 ft 265 kts 237°
2026-05-07 21:07 34.71420 -3.41570 15866 ft 268 kts 237°
2026-05-07 21:08 34.70374 -3.43464 16288 ft 271 kts 237°
2026-05-07 21:08 34.69321 -3.45367 16731 ft 271 kts 237°
2026-05-07 21:08 34.68262 -3.47277 17140 ft 273 kts 237°
2026-05-07 21:08 34.67197 -3.49203 17555 ft 276 kts 237°
2026-05-07 21:09 34.66121 -3.51146 17955 ft 278 kts 237°
2026-05-07 21:09 34.65036 -3.53103 18336 ft 280 kts 238°
2026-05-07 21:09 34.63942 -3.55073 18681 ft 282 kts 238°
2026-05-07 21:09 34.62859 -3.57026 19040 ft 283 kts 238°
2026-05-07 21:10 34.61742 -3.59036 19407 ft 284 kts 237°
2026-05-07 21:10 34.60652 -3.60999 19775 ft 285 kts 237°
2026-05-07 21:10 34.59530 -3.63020 20153 ft 285 kts 237°
2026-05-07 21:10 34.58437 -3.64987 20534 ft 286 kts 237°
2026-05-07 21:11 34.57323 -3.66988 20896 ft 287 kts 237°
2026-05-07 21:11 34.56203 -3.68997 21237 ft 288 kts 237°
2026-05-07 21:11 34.53943 -3.73047 21928 ft 291 kts 237°
2026-05-07 21:12 34.52808 -3.75079 22285 ft 292 kts 237°
2026-05-07 21:12 34.51663 -3.77126 22613 ft 294 kts 237°
2026-05-07 21:12 34.50519 -3.79177 22955 ft 295 kts 237°
2026-05-07 21:12 34.49363 -3.81250 23306 ft 296 kts 237°
2026-05-07 21:13 34.48204 -3.83324 23633 ft 297 kts 237°
2026-05-07 21:13 34.47044 -3.85398 23923 ft 298 kts 237°
2026-05-07 21:13 34.45881 -3.87477 24197 ft 299 kts 237°
2026-05-07 21:13 34.44708 -3.89573 24463 ft 301 kts 237°
2026-05-07 21:14 34.43525 -3.91682 24705 ft 303 kts 237°
2026-05-07 21:14 34.42336 -3.93798 24966 ft 305 kts 237°
2026-05-07 21:14 34.41145 -3.95923 25216 ft 306 kts 237°
2026-05-07 21:14 34.39946 -3.98059 25484 ft 307 kts 237°
2026-05-07 21:15 34.38745 -4.00200 25677 ft 309 kts 237°
2026-05-07 21:15 34.37534 -4.02356 25914 ft 310 kts 237°
2026-05-07 21:15 34.36318 -4.04520 26130 ft 312 kts 237°
2026-05-07 21:15 34.35113 -4.06664 26374 ft 313 kts 237°
2026-05-07 21:16 34.33884 -4.08849 26612 ft 314 kts 237°
2026-05-07 21:16 34.32653 -4.11039 26846 ft 316 kts 237°
2026-05-07 21:16 34.31413 -4.13244 27045 ft 317 kts 237°
2026-05-07 21:16 34.30165 -4.15455 27253 ft 319 kts 237°
2026-05-07 21:17 34.28913 -4.17670 27463 ft 320 kts 237°
2026-05-07 21:17 34.27652 -4.19897 27674 ft 321 kts 236°
2026-05-07 21:17 34.26385 -4.22132 27881 ft 322 kts 237°
2026-05-07 21:17 34.25113 -4.24374 28053 ft 324 kts 237°
2026-05-07 21:18 34.23838 -4.26624 28231 ft 326 kts 237°
2026-05-07 21:18 34.22554 -4.28891 28410 ft 327 kts 237°
2026-05-07 21:18 34.21266 -4.31160 28593 ft 328 kts 237°
2026-05-07 21:18 34.19977 -4.33433 28767 ft 328 kts 237°
2026-05-07 21:19 34.18685 -4.35715 28929 ft 330 kts 237°
2026-05-07 21:19 34.17388 -4.38006 29082 ft 331 kts 237°
2026-05-07 21:19 34.16086 -4.40302 29223 ft 333 kts 237°
2026-05-07 21:19 34.14776 -4.42610 29373 ft 334 kts 237°
2026-05-07 21:20 34.13462 -4.44922 29506 ft 335 kts 237°
2026-05-07 21:20 34.12142 -4.47241 29656 ft 335 kts 237°
2026-05-07 21:20 34.10818 -4.49563 29805 ft 336 kts 237°
2026-05-07 21:20 34.09491 -4.51889 29949 ft 337 kts 237°
2026-05-07 21:21 34.08176 -4.54193 30093 ft 338 kts 237°
2026-05-07 21:21 34.06842 -4.56531 30211 ft 339 kts 237°
2026-05-07 21:21 34.05506 -4.58872 30345 ft 339 kts 237°
2026-05-07 21:21 34.04165 -4.61219 30475 ft 340 kts 237°
2026-05-07 21:22 34.02822 -4.63569 30613 ft 340 kts 237°
2026-05-07 21:22 34.01478 -4.65922 30746 ft 341 kts 237°
2026-05-07 21:22 34.00130 -4.68277 30903 ft 341 kts 237°
2026-05-07 21:22 33.98778 -4.70634 30982 ft 343 kts 237°
2026-05-07 21:23 33.96032 -4.75429 31000 ft 352 kts 237°
2026-05-07 21:23 33.93209 -4.80344 30999 ft 362 kts 237°
2026-05-07 21:24 33.90302 -4.85390 31002 ft 371 kts 237°
2026-05-07 21:24 33.87325 -4.90567 31002 ft 380 kts 237°
2026-05-07 21:25 33.84270 -4.95865 31006 ft 390 kts 236°
2026-05-07 21:25 33.81163 -5.01248 31004 ft 398 kts 236°
2026-05-07 21:26 33.77970 -5.06767 31001 ft 404 kts 236°
2026-05-07 21:26 33.74745 -5.12315 30998 ft 405 kts 236°
2026-05-07 21:27 33.71515 -5.17873 30999 ft 405 kts 236°
2026-05-07 21:27 33.68295 -5.23427 30991 ft 405 kts 236°
2026-05-07 21:28 33.65068 -5.28985 30993 ft 406 kts 236°
2026-05-07 21:28 33.61857 -5.34494 31015 ft 405 kts 236°
2026-05-07 21:29 33.58625 -5.40027 31007 ft 405 kts 236°
2026-05-07 21:29 33.55423 -5.45511 30981 ft 403 kts 236°
2026-05-07 21:30 33.52207 -5.51009 30979 ft 402 kts 236°
2026-05-07 21:30 33.48990 -5.56491 30983 ft 402 kts 236°
2026-05-07 21:31 33.45768 -5.61969 30983 ft 402 kts 236°
2026-05-07 21:31 33.42551 -5.67449 30977 ft 402 kts 236°
2026-05-07 21:32 33.39332 -5.72926 30999 ft 402 kts 236°
2026-05-07 21:32 33.36107 -5.78385 30993 ft 402 kts 236°
2026-05-07 21:33 33.32859 -5.83817 30982 ft 402 kts 232°
2026-05-07 21:33 33.29179 -5.88851 30978 ft 402 kts 230°
2026-05-07 21:34 33.25472 -5.93865 30976 ft 402 kts 230°
2026-05-07 21:34 33.21756 -5.98875 30970 ft 402 kts 230°
2026-05-07 21:35 33.18052 -6.03881 30968 ft 403 kts 230°
2026-05-07 21:35 33.14366 -6.08860 30974 ft 403 kts 230°
2026-05-07 21:36 33.10654 -6.13870 30971 ft 403 kts 230°
2026-05-07 21:36 33.06937 -6.18869 30969 ft 403 kts 230°
2026-05-07 21:37 33.03216 -6.23860 30964 ft 403 kts 230°
2026-05-07 21:37 32.99496 -6.28854 30925 ft 403 kts 230°
2026-05-07 21:38 32.95773 -6.33836 30936 ft 403 kts 230°
2026-05-07 21:38 32.92044 -6.38821 30943 ft 403 kts 230°
2026-05-07 21:39 32.88317 -6.43818 30948 ft 404 kts 230°
2026-05-07 21:39 32.84596 -6.48809 30976 ft 403 kts 230°
2026-05-07 21:40 32.80875 -6.53787 30973 ft 402 kts 230°
2026-05-07 21:40 32.77157 -6.58751 30977 ft 401 kts 230°
2026-05-07 21:41 32.73446 -6.63702 30965 ft 401 kts 230°
2026-05-07 21:41 32.69741 -6.68648 30940 ft 401 kts 230°
2026-05-07 21:42 32.66058 -6.73561 30951 ft 401 kts 230°
2026-05-07 21:42 32.62334 -6.78496 30946 ft 401 kts 230°
2026-05-07 21:43 32.58607 -6.83429 30946 ft 401 kts 230°
2026-05-07 21:43 32.54890 -6.88358 30974 ft 400 kts 229°
2026-05-07 21:44 32.51190 -6.93273 30968 ft 399 kts 229°
2026-05-07 21:44 32.47488 -6.98171 30966 ft 399 kts 229°
2026-05-07 21:45 32.44408 -7.02226 30966 ft 398 kts 229°
2026-05-07 21:45 32.40698 -7.07107 30935 ft 398 kts 230°
2026-05-07 21:46 32.36995 -7.11988 30938 ft 399 kts 229°
2026-05-07 21:46 32.33287 -7.16866 30948 ft 399 kts 229°
2026-05-07 21:47 32.29580 -7.21743 30947 ft 399 kts 229°
2026-05-07 21:47 32.25867 -7.26609 30962 ft 398 kts 229°
2026-05-07 21:48 32.22158 -7.31471 30967 ft 398 kts 229°
2026-05-07 21:48 32.18456 -7.36328 30970 ft 398 kts 229°
2026-05-07 21:49 32.14753 -7.41166 30968 ft 397 kts 229°
2026-05-07 21:49 32.11052 -7.46010 30937 ft 398 kts 229°
2026-05-07 21:50 32.07345 -7.50863 30942 ft 398 kts 229°
2026-05-07 21:50 32.03632 -7.55700 30945 ft 398 kts 229°
2026-05-07 21:51 31.99901 -7.60544 30960 ft 399 kts 229°
2026-05-07 21:51 31.96204 -7.65338 30968 ft 398 kts 229°
2026-05-07 21:52 31.92481 -7.70162 30970 ft 398 kts 229°
2026-05-07 21:52 31.88760 -7.74978 30971 ft 397 kts 229°
2026-05-07 21:53 31.85042 -7.79783 30968 ft 397 kts 229°
2026-05-07 21:53 31.81324 -7.84574 30940 ft 397 kts 229°
2026-05-07 21:54 31.77595 -7.89368 30946 ft 397 kts 229°
2026-05-07 21:54 31.73862 -7.94169 30949 ft 398 kts 229°
2026-05-07 21:55 31.70122 -7.98966 30957 ft 398 kts 229°
2026-05-07 21:55 31.66385 -8.03757 30957 ft 398 kts 229°
2026-05-07 21:56 31.62641 -8.08548 30969 ft 398 kts 229°
2026-05-07 21:56 31.58605 -8.12998 30962 ft 399 kts 223°
2026-05-07 21:57 31.54394 -8.17249 30967 ft 399 kts 223°
2026-05-07 21:57 31.50184 -8.21494 30944 ft 400 kts 223°
2026-05-07 21:58 31.45990 -8.25714 30948 ft 400 kts 223°
2026-05-07 21:58 31.41765 -8.29962 30953 ft 400 kts 223°
2026-05-07 21:59 31.37537 -8.34208 30954 ft 400 kts 223°
2026-05-07 21:59 31.33315 -8.38438 30985 ft 399 kts 223°
2026-05-07 22:00 31.29100 -8.42670 31044 ft 400 kts 223°
2026-05-07 22:00 31.26972 -8.44804 30930 ft 406 kts 223°
2026-05-07 22:00 31.24819 -8.46956 30978 ft 407 kts 223°
2026-05-07 22:01 31.20543 -8.51229 30985 ft 399 kts 224°
2026-05-07 22:01 31.16356 -8.55444 30969 ft 396 kts 224°
2026-05-07 22:02 31.12210 -8.59623 30973 ft 397 kts 224°
2026-05-07 22:02 31.08025 -8.63818 30969 ft 396 kts 223°
2026-05-07 22:03 31.03843 -8.68004 30967 ft 396 kts 224°
2026-05-07 22:03 30.99661 -8.72189 30982 ft 396 kts 224°
2026-05-07 22:04 30.95491 -8.76363 30989 ft 395 kts 224°
2026-05-07 22:04 30.91317 -8.80528 30961 ft 395 kts 224°
2026-05-07 22:05 30.87130 -8.84674 30961 ft 395 kts 223°
2026-05-07 22:05 30.82928 -8.88785 30961 ft 395 kts 223°
2026-05-07 22:06 30.78724 -8.92888 30965 ft 394 kts 223°
2026-05-07 22:06 30.74521 -8.96986 30963 ft 394 kts 223°
2026-05-07 22:07 30.70317 -9.01087 30963 ft 394 kts 223°
2026-05-07 22:07 30.66114 -9.05181 30959 ft 394 kts 223°
2026-05-07 22:08 30.61907 -9.09280 30921 ft 394 kts 224°
2026-05-07 22:08 30.57717 -9.13397 30928 ft 395 kts 224°
2026-05-07 22:09 30.53558 -9.17494 30936 ft 395 kts 224°
2026-05-07 22:09 30.49357 -9.21608 30939 ft 396 kts 224°
2026-05-07 22:10 30.45141 -9.25714 30934 ft 396 kts 224°
2026-05-07 22:10 30.40929 -9.29821 30941 ft 396 kts 224°
2026-05-07 22:11 30.36712 -9.33937 30938 ft 396 kts 224°
2026-05-07 22:11 30.32398 -9.37913 30939 ft 400 kts 216°
2026-05-07 22:12 30.27234 -9.40516 30943 ft 408 kts 206°
2026-05-07 22:12 30.21910 -9.42821 30954 ft 409 kts 207°
2026-05-07 22:13 30.16585 -9.45135 30973 ft 408 kts 207°
2026-05-07 22:13 30.11267 -9.47448 30989 ft 408 kts 207°
2026-05-07 22:14 30.05994 -9.49737 30989 ft 407 kts 207°
2026-05-07 22:14 30.00684 -9.52040 30963 ft 408 kts 207°
2026-05-07 22:15 29.95362 -9.54344 30978 ft 409 kts 207°
2026-05-07 22:15 29.90033 -9.56654 30999 ft 409 kts 207°
2026-05-07 22:16 29.84704 -9.58986 31005 ft 410 kts 207°
2026-05-07 22:16 29.79368 -9.61316 31019 ft 410 kts 207°
2026-05-07 22:17 29.74029 -9.63644 30995 ft 411 kts 207°
2026-05-07 22:17 29.68666 -9.65969 31015 ft 412 kts 207°
2026-05-07 22:18 29.60605 -9.69471 31012 ft 413 kts 207°
2026-05-07 22:19 29.55230 -9.71815 31017 ft 413 kts 207°
2026-05-07 22:19 29.49851 -9.74144 31022 ft 413 kts 207°
2026-05-07 22:20 29.44462 -9.76459 30990 ft 414 kts 206°
2026-05-07 22:20 29.39057 -9.78783 30996 ft 415 kts 206°
2026-05-07 22:21 29.33649 -9.81121 30996 ft 416 kts 206°
2026-05-07 22:21 29.28231 -9.83463 31005 ft 416 kts 207°
2026-05-07 22:22 29.22810 -9.85795 31000 ft 416 kts 207°
2026-05-07 22:22 29.17392 -9.88120 30993 ft 416 kts 207°
2026-05-07 22:23 29.12008 -9.90428 30956 ft 417 kts 206°
2026-05-07 22:23 29.06567 -9.92769 30959 ft 418 kts 207°
2026-05-07 22:24 29.01121 -9.95109 30963 ft 418 kts 206°
2026-05-07 22:24 28.95666 -9.97434 30967 ft 419 kts 206°
2026-05-07 22:25 28.90208 -9.99754 30974 ft 419 kts 206°
2026-05-07 22:25 28.84745 -10.02077 30950 ft 419 kts 206°
2026-05-07 22:26 28.79274 -10.04402 30983 ft 420 kts 206°
2026-05-07 22:26 28.73786 -10.06728 30988 ft 421 kts 206°
2026-05-07 22:27 28.68286 -10.09062 30996 ft 421 kts 206°
2026-05-07 22:27 28.62788 -10.11389 30998 ft 422 kts 206°
2026-05-07 22:28 28.57288 -10.13713 30980 ft 422 kts 206°
2026-05-07 22:28 28.51781 -10.16041 30982 ft 423 kts 206°
2026-05-07 22:29 28.46253 -10.18373 30989 ft 423 kts 206°
2026-05-07 22:29 28.40730 -10.20701 30998 ft 424 kts 206°
2026-05-07 22:30 28.35204 -10.23031 31008 ft 424 kts 206°
2026-05-07 22:30 28.29707 -10.25341 31014 ft 424 kts 206°
2026-05-07 22:31 28.24176 -10.27659 30981 ft 424 kts 206°
2026-05-07 22:31 28.18644 -10.29982 30980 ft 424 kts 206°
2026-05-07 22:32 28.13104 -10.32300 30978 ft 425 kts 206°
2026-05-07 22:32 28.07560 -10.34620 30993 ft 425 kts 206°
2026-05-07 22:33 28.02907 -10.36568 30990 ft 425 kts 206°
2026-05-07 22:33 27.97393 -10.38874 30957 ft 425 kts 206°
2026-05-07 22:34 27.91832 -10.41195 30961 ft 427 kts 206°
2026-05-07 22:34 27.86254 -10.43526 30969 ft 428 kts 206°
2026-05-07 22:35 27.80667 -10.45856 30973 ft 428 kts 206°
2026-05-07 22:35 27.75072 -10.48182 30977 ft 429 kts 206°
2026-05-07 22:36 27.69468 -10.50504 30985 ft 429 kts 206°
2026-05-07 22:36 27.63876 -10.52837 30968 ft 428 kts 206°
2026-05-07 22:37 27.58307 -10.55240 30976 ft 428 kts 206°
2026-05-07 22:37 27.52750 -10.57666 30986 ft 428 kts 206°
2026-05-07 22:38 27.47190 -10.60075 30989 ft 428 kts 206°
2026-05-07 22:38 27.41663 -10.62445 30991 ft 427 kts 206°
2026-05-07 22:39 27.36098 -10.64821 31005 ft 428 kts 206°
2026-05-07 22:39 27.30541 -10.67201 30996 ft 427 kts 206°
2026-05-07 22:40 27.24983 -10.69582 31002 ft 427 kts 206°
2026-05-07 22:40 27.19422 -10.71962 30997 ft 428 kts 206°
2026-05-07 22:41 27.13862 -10.74342 31002 ft 427 kts 206°
2026-05-07 22:41 27.08306 -10.76718 31007 ft 427 kts 206°
2026-05-07 22:42 27.02752 -10.79084 30984 ft 427 kts 206°
2026-05-07 22:42 26.97196 -10.81451 30990 ft 428 kts 206°
2026-05-07 22:43 26.91623 -10.83827 30992 ft 428 kts 206°
2026-05-07 22:43 26.86057 -10.86191 30990 ft 428 kts 206°
2026-05-07 22:44 26.80487 -10.88558 31005 ft 428 kts 206°
2026-05-07 22:44 26.74948 -10.90906 30984 ft 428 kts 206°
2026-05-07 22:45 26.69371 -10.93274 30989 ft 429 kts 206°
2026-05-07 22:45 26.63776 -10.95648 31008 ft 430 kts 206°
2026-05-07 22:46 26.58178 -10.98014 31015 ft 430 kts 206°
2026-05-07 22:46 26.52583 -11.00372 31021 ft 430 kts 206°
2026-05-07 22:47 26.46986 -11.02735 31032 ft 430 kts 206°
2026-05-07 22:47 26.41394 -11.05093 31010 ft 430 kts 206°